Theta_e
347 346 345 346 347 346 346 344 344 345 344 343 339 337 344 346 347 345 345 345 348 348 346 344 342 346 345 342 340 341 344 341 335
347 345 345 346 346 347 347 347 346 344 342 339 336 333 342 344 346 346 344 348 346 349 347 346 346 348 349 347 342 341 344 343 340
343 344 343 344 346 346 347 347 346 345 342 340 331 333 336 340 344 344 344 348 348 348 348 347 347 346 349 341 340 346 342 340 340
344 344 341 342 344 344 343 347 346 347 345 344 341 336 332 334 341 339 338 338 348 348 349 346 348 350 346 345 337 342 344 344 344
343 346 348 348 344 343 345 347 346 347 346 344 342 340 339 336 337 339 340 340 345 345 346 349 348 350 346 343 345 347 346 348 342
341 344 346 347 346 347 348 347 346 343 344 345 343 341 341 341 341 341 341 342 343 345 344 344 349 349 348 346 346 346 348 348 349
339 340 342 343 345 346 347 346 344 341 342 345 343 344 343 344 344 343 343 343 344 343 344 345 344 344 344 344 347 346 348 349 345
335 337 339 342 343 342 343 342 342 341 342 341 341 339 342 343 343 344 344 345 345 348 348 347 346 346 347 343 342 344 345 347 348
330 331 334 337 340 341 342 343 343 343 344 344 337 338 342 341 342 344 344 345 346 350 351 349 349 350 350 349 349 347 345 346 348
330 328 326 327 329 334 335 337 340 341 342 342 342 342 341 340 342 341 340 340 345 346 347 348 347 348 347 351 348 349 348 347 346
326 326 324 324 324 326 330 333 331 332 332 333 334 336 338 341 341 341 339 341 341 341 343 344 348 349 348 348 348 352 351 351 349
324 323 322 322 323 323 327 331 331 329 329 329 330 330 331 332 332 340 338 339 341 343 342 342 343 347 347 348 349 349 350 350 349
321 323 323 322 321 322 322 323 325 326 326 326 327 327 326 325 326 329 329 328 325 325 329 337 338 341 343 345 346 346 347 350 350
320 319 319 319 320 319 319 320 321 321 321 320 318 316 316 319 321 322 322 319 317 318 326 329 332 337 340 341 343 344 344 345 346
318 318 318 318 318 318 318 318 318 317 316 315 315 314 313 313 314 314 314 315 316 318 323 325 328 335 339 339 337 338 333 335 338
317 317 317 318 317 318 318 318 317 315 313 313 311 311 310 310 310 311 314 315 316 320 323 323 324 326 328 328 326 325 323 320 318
317 317 317 317 317 317 317 316 314 311 310 309 309 308 309 310 311 312 315 318 320 321 321 322 321 321 321 322 322 320 319 318 318
317 317 317 316 315 314 313 312 309 308 307 307 306 307 307 307 308 310 312 314 317 318 317 317 318 318 318 318 318 318 318 318 318
316 316 316 314 311 311 310 308 307 306 305 305 305 305 305 305 305 305 305 306 308 309 311 313 313 314 316 317 317 318 318 318 318
315 314 314 312 312 311 309 306 305 304 303 303 302 302 302 301 301 301 302 302 302 303 303 303 304 306 307 310 313 315 316 316 317
Wind_Speed
25 40 36 29 21 25 34 36 31 29 25 24 27 33 28 24 22 20 15 14 14 14 10 11 10 8 6 8 11 12 14 12 12
19 26 36 31 25 22 21 30 36 31 25 22 28 31 29 28 23 23 19 14 14 11 10 7 14 12 14 10 10 14 11 11 10
6 17 21 27 31 22 20 18 31 34 27 22 26 27 31 29 25 23 21 18 16 13 11 11 9 8 11 9 13 11 11 9 11
4 6 15 24 36 28 24 19 28 29 28 27 24 25 27 29 27 23 20 21 21 17 15 15 15 14 11 11 9 9 9 10 12
3 2 9 16 26 27 20 19 25 19 24 24 25 25 25 24 24 22 22 22 25 22 18 17 15 13 10 13 13 11 10 9 10
7 7 6 16 24 29 24 19 16 26 19 21 21 26 25 24 22 23 25 24 24 24 23 23 21 20 17 13 15 14 14 12 12
11 9 10 13 19 20 18 18 17 24 29 26 21 19 19 24 25 27 27 24 22 24 25 23 21 20 20 20 18 17 17 18 17
12 12 14 14 15 18 18 17 18 19 18 15 30 27 21 23 28 27 27 26 25 23 22 22 21 19 18 17 18 18 17 18 18
17 16 16 16 19 17 18 18 19 15 13 19 26 30 27 22 17 13 15 23 26 25 22 22 22 23 21 19 19 19 18 18 18
21 21 24 26 25 21 19 15 15 15 16 15 15 16 15 18 20 11 11 18 14 13 17 21 21 23 23 22 22 20 20 21 22
27 25 23 23 25 22 21 23 23 22 21 19 17 13 8 10 9 13 14 18 16 15 18 23 23 23 24 25 23 20 21 22 23
25 23 22 21 20 22 23 22 20 19 18 16 15 14 14 12 10 6 5 12 18 22 23 23 20 17 18 17 17 19 20 23 26
24 20 17 16 15 15 15 15 13 11 10 9 10 10 9 9 10 8 6 5 3 0 2 3 7 9 10 13 18 21 22 22 24
21 18 15 12 9 9 9 7 7 7 6 5 4 4 4 5 6 6 5 4 2 2 3 2 1 4 1 3 7 11 15 15 14
23 20 15 10 8 7 6 6 7 6 6 6 5 6 6 7 6 7 6 4 3 3 2 2 4 6 5 2 6 6 9 10 12
22 19 15 11 9 8 7 8 8 8 7 6 6 8 8 9 9 10 8 7 6 6 6 5 4 3 4 5 7 11 14 15 14
23 18 15 12 10 10 10 11 12 11 9 8 7 4 2 4 5 7 9 8 8 8 8 7 8 9 10 12 14 14 13 15 16
21 20 15 11 12 13 12 9 8 6 5 4 3 3 4 3 1 3 5 8 9 9 8 9 10 12 13 16 17 16 17 19 20
18 16 13 10 10 10 8 8 6 5 3 2 1 1 2 5 6 6 4 2 3 8 11 14 16 18 21 20 18 22 23 23 21
14 11 11 11 11 10 9 8 4 1 1 2 3 3 4 6 7 7 8 9 9 9 5 6 8 11 15 20 26 29 29 28 27
Wind_Direction
197 184 193 192 176 179 198 204 209 211 212 211 207 202 208 210 217 224 227 233 212 237 217 214 207 215 234 220 207 205 215 231 231
192 200 205 209 205 173 182 202 211 214 216 215 210 206 207 212 221 225 219 219 214 213 216 250 225 249 253 245 216 217 222 225 222
169 214 222 209 206 211 202 197 215 218 224 223 212 211 210 212 218 220 218 216 218 215 224 242 239 256 222 235 208 214 225 215 222
91 230 230 220 208 220 235 216 205 218 223 227 217 214 211 214 217 222 223 224 222 219 231 239 247 249 249 226 219 203 214 224 229
82 148 230 233 214 227 209 209 200 205 216 225 220 218 213 214 212 220 226 227 219 226 230 237 246 243 239 236 234 226 218 226 239
139 151 145 170 174 184 181 199 221 229 227 218 218 221 221 223 225 229 233 236 230 229 233 237 242 248 251 258 240 243 245 248 252
134 153 167 147 172 175 181 195 207 188 207 218 217 221 232 227 226 229 232 229 234 236 240 243 248 250 253 252 251 254 254 256 262
120 131 144 154 144 141 160 181 182 182 205 225 212 226 239 236 229 226 234 236 233 229 235 237 244 248 252 254 249 253 257 259 265
111 111 114 131 143 140 139 153 169 158 160 195 199 217 229 244 249 229 226 235 239 240 235 233 235 235 238 245 252 256 255 258 262
125 118 110 105 101 108 109 129 148 157 168 169 175 195 208 229 238 251 265 245 237 244 253 247 246 250 246 243 247 245 252 254 256
124 125 119 112 108 106 111 107 107 111 114 117 119 120 152 206 235 234 257 262 270 266 270 255 246 246 249 253 251 256 258 258 259
126 125 120 117 117 107 110 121 125 125 125 124 125 123 123 132 134 167 226 243 253 253 256 261 254 244 244 255 261 266 263 263 263
125 125 131 131 130 129 123 122 141 149 140 142 134 133 130 127 131 152 167 161 162 248 5 287 278 274 272 261 259 268 274 269 268
147 132 133 139 142 144 142 168 196 198 184 177 154 157 162 169 177 195 198 172 142 103 87 75 94 122 68 298 256 271 278 283 287
145 148 147 156 172 175 186 211 235 239 243 256 268 273 267 248 240 244 249 242 198 200 182 101 52 74 70 30 347 327 343 320 296
156 164 168 176 203 208 222 253 275 282 281 284 275 271 267 261 259 256 260 259 242 227 230 230 240 238 234 270 296 316 322 320 317
162 171 184 198 219 245 256 268 278 280 294 311 326 332 281 255 252 243 237 242 239 247 258 260 271 281 285 285 287 291 293 302 302
178 182 193 215 239 245 250 259 266 273 285 307 338 32 54 68 140 231 241 249 255 255 273 280 282 291 298 301 300 301 302 299 295
185 189 207 223 226 229 240 259 267 278 272 293 326 47 41 30 19 11 3 314 252 275 273 272 274 274 277 275 281 281 283 284 286
191 203 221 235 233 239 249 254 272 269 130 95 82 63 41 18 9 5 360 354 344 329 321 302 286 281 275 275 276 274 278 281 282